Location: Columbia
(38.9520°N, 92.3340°W)
Time: 05:19:41
(UTC-06:00)

Cosmos 1633 - Visible Passes

Search period start: 27 February 2017 00:00
Search period end: 09 March 2017 00:00
Orbit: 472 x 490 km, 82.5° (Epoch: 26 February)

Date Brightness Start Highest point End Pass type
(mag) Time Alt. Az. Time Alt. Az. Time Alt. Az.
27 Feb 3.8 05:26:41 10° N 05:30:09 43° E 05:33:36 10° SSE visible
27 Feb 4.9 19:09:30 10° SW 19:12:43 28° WNW 19:15:56 10° NNW visible
28 Feb 4.9 05:01:21 10° NNE 05:04:25 25° ENE 05:07:26 10° SE visible
28 Feb 3.7 18:43:24 10° SSW 18:46:58 48° W 18:50:33 10° N visible
01 Mar 5.7 04:36:22 10° NE 04:38:36 15° ENE 04:40:48 10° ESE visible
01 Mar 3.5 06:10:34 10° NNW 06:13:37 26° W 06:16:38 10° SSW visible
02 Mar 2.8 05:44:33 10° NNW 05:48:00 45° W 05:51:26 10° SSW visible
03 Mar 2.4 05:18:44 10° N 05:22:21 84° W 05:25:56 10° S visible
03 Mar 5.9 19:02:56 10° WSW 19:05:03 15° WNW 19:07:10 10° NW visible
04 Mar 3.3 04:53:06 10° N 04:56:40 53° E 05:00:09 10° SSE visible
04 Mar 5.4 18:36:14 10° SW 18:39:14 24° WNW 18:42:15 10° NNW visible
05 Mar 4.5 04:27:41 10° NNE 04:30:54 30° ENE 04:34:05 10° SE visible
05 Mar 4.3 06:03:48 10° WNW 06:05:33 13° W 06:07:19 10° WSW visible
06 Mar 5.3 04:02:32 10° NNE 04:05:05 18° ENE 04:07:37 10° ESE visible
06 Mar 3.7 05:37:11 10° NW 05:40:00 22° W 05:42:48 10° SW visible
07 Mar 5.9 03:38:10 10° NE 03:39:13 11° ENE 03:40:16 10° E visible
07 Mar 3.0 05:11:03 10° NNW 05:14:24 37° W 05:17:43 10° SSW visible
08 Mar 4.7 04:45:10 10° NNW 04:46:02 16° NNW 04:46:02 16° NNW visible
